Terug naar catalogus

NOAA 16 DEB

ActiefSSO
NORAD 41144·DEBRIS·🇺🇸 United States

Gelanceerd Sep 21, 2000 vanaf Vandenberg Space Force Base

Loading…

Volgende Passages (komende 24 uur)

TLE

VersSource: Space-Track

Epoch: Sep 13, 2026, 21:06 UTC

1 41144U 00055CB  26256.87923559  .00002265  00000-0  87533-3 0  9997
2 41144  98.6012 305.2747 0026652 226.6627 133.2335 14.30922951558354

Volg NOAA 16 DEB in realtime met AllMySat

Download on the App Store